星链-4731 (STARLINK-4731 )

导读 | 豆包AI

STARLINK-4731是美国太空探索技术公司(SpaceX)星链星座的成员,由美国于2022年9月5日发射升空。星链项目旨在构建全球卫星互联网,该卫星承担着为地面偏远地区、移动载体提供低延迟宽带接入的任务,依靠批量部署的低轨卫星网络,助力实现全球无缝网络覆盖,推动卫星互联网商业化落地。

Basic Information
目录编号:
53703
目录名称:
STARLINK-4731
国际标识:
2022-107D
轨道中心:
EARTH
卫星名称:
星链-4731
卫星全名:
星链-4731 (STARLINK-4731 )
卫星状态:
在轨 (已飞行1287 天)
发射日期:
2022-09-05 UTC
国别 :
美国 (US)
星等 :
--
Orbit Information
数据来源 国际轨道数据 AOE轨道数据
星历时间 2026-03-15T03:56:59+0800
13小时前
查看轨道信息
2026-03-12T14:00:00+0800
3天前
查看轨道信息
半长轴 6917.885km 6917.834km
偏心率 0.000105 0.0001606
轨道倾角 53.216° 53.216°
近地点辐角 95.155° 88.028°
升交点赤经 220.784° 232.375°
平近点角 264.956° 283.604°
近地点 539.021km 538.585km
远地点 540.475km 540.809km
周期 95.438分钟 95.437分钟
每日圈数 15.088388 15.088552
Detailed Information
固有亮度:
5
最大亮度:
2.5
卫星平台:
Starlink v1.5
覆盖范围:
全球
运营商:
太空探索技术公司
运营商所在国:
美国
制造商(研发单位):
太空探索技术公司
制造商所在国:
美国
使用方式:
暂无
Satellite Introduction
星链(Starlink)计划是由太空探索技术公司(SpaceX)提出的一个巨型低轨卫星互联网星座项目,计划在2019年至2024年间在太空搭建由约1.2万颗卫星组成的“星链”网络,其中1584颗将部署在地球上空550千米处的近地轨道,并从2020年开始工作。该卫星仍在工作。
2D Orbit Map
3D Orbit Map
Orbit Altitude Analysis Chart
Orbit Inclination Analysis Chart
Orbit Comprehensive Analysis Chart
View Comprehensive Chart